NEE 02 KRYSAOR

导读

NEE 02 KRYSAOR卫星于2013年11月21日08:00由欧洲(EC)发射升空,这一发射任务丰富了欧洲低轨卫星组网布局。作为小卫星家族的一员,它在设计上适配近地轨道环境,主要承担空间技术验证、对地观测相关试验任务,目前已在轨运行十余年,持续为航天领域积累了宝贵的在轨运行数据,推动了欧洲小型卫星技术的迭代发展。

基本信息
目录编号:
39441
目录名称:
NEE 02 KRYSAOR
国际标识:
2013-066AB
轨道中心:
EARTH
卫星名称:
NEE 02 KRYSAOR
卫星全名:
--
卫星状态:
在轨 (已飞行4671 天)
发射日期:
2013-11-21 UTC
国别 :
(EC)
星等 :
--
轨道信息
数据来源 国际轨道数据
星历时间: 2026-09-05T15:08:18+0800
7小时前
查看轨道信息
半长轴: 6985.82km
偏心率: 0.0065964
轨道倾角: 97.892°
近地点辐角 165.628°
升交点赤经 186.970°
平近点角 194.683°
近地点: 561.601km
远地点: 653.765km
周期: 96.847分钟
每日圈数: 14.868826
详细信息
使用方式:
暂无
2D轨道图
3D轨道图
轨道高度分析图
轨道倾角分析图
轨道综合分析图
查看轨道综合分析图
交会数据列表
事件ID 空间交会对象 最接近时刻(TCA) 交会距离 交会风险概率(CRP) 交会风险指数(CRI) 操作
CDM_260907-031703-944105-541023
2026-09-07T
03:17:36+0000
2.360 km
极远距离
1.961058E-6 低风险 0.41
CDM_260908-010303-578603-944121
2026-09-08T
01:03:39+0000
2.820 km
极远距离
9.661383E-7 极低风险 0.35
CDM_260902-203402-360703-944125
2026-09-02T
20:34:16+0000
2.632 km
极远距离
8.290425E-7 极低风险 0.33